Year,Month,Day,Hour,Minute,Value (Times are PST for temperature in C)
2015,10,11,00,00,12.40
2015,10,11,00,01,12.40
2015,10,11,00,02,12.40
2015,10,11,00,03,12.40
2015,10,11,00,04,12.40
2015,10,11,00,05,12.30
2015,10,11,00,06,12.30
2015,10,11,00,07,12.30
2015,10,11,00,08,12.30
2015,10,11,00,09,12.30
2015,10,11,00,10,12.30
2015,10,11,00,11,12.30
2015,10,11,00,12,12.20
2015,10,11,00,13,12.20
2015,10,11,00,14,12.20
2015,10,11,00,15,12.20
2015,10,11,00,16,12.20
2015,10,11,00,17,12.10
2015,10,11,00,18,12.10
2015,10,11,00,19,12.10
2015,10,11,00,20,12.10
2015,10,11,00,21,12.00
2015,10,11,00,22,12.00
2015,10,11,00,23,12.00
2015,10,11,00,24,11.90
2015,10,11,00,25,11.90
2015,10,11,00,26,11.90
2015,10,11,00,27,11.90
2015,10,11,00,28,11.90
2015,10,11,00,29,11.90
2015,10,11,00,30,11.80
2015,10,11,00,31,11.80
2015,10,11,00,32,11.80
2015,10,11,00,33,11.90
2015,10,11,00,34,11.90
2015,10,11,00,35,11.90
2015,10,11,00,36,12.00
2015,10,11,00,37,12.10
2015,10,11,00,38,12.10
2015,10,11,00,39,12.20
2015,10,11,00,40,12.20
2015,10,11,00,41,12.30
2015,10,11,00,42,12.30
2015,10,11,00,43,12.40
2015,10,11,00,44,12.40
2015,10,11,00,45,12.40
2015,10,11,00,46,12.40
2015,10,11,00,47,12.50
2015,10,11,00,48,12.50
2015,10,11,00,49,12.50
2015,10,11,00,50,12.50
2015,10,11,00,51,12.50
2015,10,11,00,52,12.40
2015,10,11,00,53,12.40
2015,10,11,00,54,12.40
2015,10,11,00,55,12.40
2015,10,11,00,56,12.30
2015,10,11,00,57,12.30
2015,10,11,00,58,12.30
2015,10,11,00,59,12.20
2015,10,11,01,00,12.20
2015,10,11,01,01,12.20
2015,10,11,01,02,12.10
2015,10,11,01,03,12.10
2015,10,11,01,04,12.00
2015,10,11,01,05,11.90
2015,10,11,01,06,11.90
2015,10,11,01,07,11.80
2015,10,11,01,08,11.80
2015,10,11,01,09,11.70
2015,10,11,01,10,11.60
2015,10,11,01,11,11.60
2015,10,11,01,12,11.50
2015,10,11,01,13,11.40
2015,10,11,01,14,11.30
2015,10,11,01,15,11.30
2015,10,11,01,16,11.20
2015,10,11,01,17,11.10
2015,10,11,01,18,11.00
2015,10,11,01,19,11.00
2015,10,11,01,20,10.90
2015,10,11,01,21,10.80
2015,10,11,01,22,10.80
2015,10,11,01,23,10.70
2015,10,11,01,24,10.60
2015,10,11,01,25,10.60
2015,10,11,01,26,10.50
2015,10,11,01,27,10.40
2015,10,11,01,28,10.40
2015,10,11,01,29,10.30
2015,10,11,01,30,10.30
2015,10,11,01,31,10.20
2015,10,11,01,32,10.10
2015,10,11,01,33,10.10
2015,10,11,01,34,10.00
2015,10,11,01,35,9.90
2015,10,11,01,36,9.90
2015,10,11,01,37,9.80
2015,10,11,01,38,9.70
2015,10,11,01,39,9.60
2015,10,11,01,40,9.60
2015,10,11,01,41,9.50
2015,10,11,01,42,9.50
2015,10,11,01,43,9.40
2015,10,11,01,44,9.30
2015,10,11,01,45,9.30
2015,10,11,01,46,9.30
2015,10,11,01,47,9.30
2015,10,11,01,48,9.30
2015,10,11,01,49,9.30
2015,10,11,01,50,9.30
2015,10,11,01,51,9.30
2015,10,11,01,52,9.30
2015,10,11,01,53,9.40
2015,10,11,01,54,9.40
2015,10,11,01,55,9.40
2015,10,11,01,56,9.50
2015,10,11,01,57,9.50
2015,10,11,01,58,9.50
2015,10,11,01,59,9.50
2015,10,11,02,00,9.50
2015,10,11,02,01,9.50
2015,10,11,02,02,9.50
2015,10,11,02,03,9.40
2015,10,11,02,04,9.30
2015,10,11,02,05,9.30
2015,10,11,02,06,9.20
2015,10,11,02,07,9.20
2015,10,11,02,08,9.10
2015,10,11,02,09,9.10
2015,10,11,02,10,9.00
2015,10,11,02,11,9.00
2015,10,11,02,12,8.90
2015,10,11,02,13,8.80
2015,10,11,02,14,8.80
2015,10,11,02,15,8.70
2015,10,11,02,16,8.70
2015,10,11,02,17,8.60
2015,10,11,02,18,8.60
2015,10,11,02,19,8.60
2015,10,11,02,20,8.50
2015,10,11,02,21,8.50
2015,10,11,02,22,8.50
2015,10,11,02,23,8.40
2015,10,11,02,24,8.40
2015,10,11,02,25,8.40
2015,10,11,02,26,8.30
2015,10,11,02,27,8.30
2015,10,11,02,28,8.30
2015,10,11,02,29,8.30
2015,10,11,02,30,8.30
2015,10,11,02,31,8.30
2015,10,11,02,32,8.30
2015,10,11,02,33,8.30
2015,10,11,02,34,8.30
2015,10,11,02,35,8.20
2015,10,11,02,36,8.20
2015,10,11,02,37,8.20
2015,10,11,02,38,8.10
2015,10,11,02,39,8.10
2015,10,11,02,40,8.00
2015,10,11,02,41,8.00
2015,10,11,02,42,7.90
2015,10,11,02,43,7.90
2015,10,11,02,44,7.90
2015,10,11,02,45,7.90
2015,10,11,02,46,7.90
2015,10,11,02,47,7.90
2015,10,11,02,48,7.90
2015,10,11,02,49,7.90
2015,10,11,02,50,7.80
2015,10,11,02,51,7.80
2015,10,11,02,52,7.80
2015,10,11,02,53,7.80
2015,10,11,02,54,7.80
2015,10,11,02,55,7.80
2015,10,11,02,56,7.80
2015,10,11,02,57,7.70
2015,10,11,02,58,7.70
2015,10,11,02,59,7.60
2015,10,11,03,00,7.60
2015,10,11,03,01,7.50
2015,10,11,03,02,7.40
2015,10,11,03,03,7.40
2015,10,11,03,04,7.30
2015,10,11,03,05,7.30
2015,10,11,03,06,7.30
2015,10,11,03,07,7.30
2015,10,11,03,08,7.30
2015,10,11,03,09,7.30
2015,10,11,03,10,7.20
2015,10,11,03,11,7.20
2015,10,11,03,12,7.20
2015,10,11,03,13,7.20
2015,10,11,03,14,7.20
2015,10,11,03,15,7.10
2015,10,11,03,16,7.10
2015,10,11,03,17,7.10
2015,10,11,03,18,7.10
2015,10,11,03,19,7.10
2015,10,11,03,20,7.10
2015,10,11,03,21,7.00
2015,10,11,03,22,7.00
2015,10,11,03,23,7.00
2015,10,11,03,24,6.90
2015,10,11,03,25,6.90
2015,10,11,03,26,6.90
2015,10,11,03,27,6.90
2015,10,11,03,28,6.80
2015,10,11,03,29,6.80
2015,10,11,03,30,6.80
2015,10,11,03,31,6.90
2015,10,11,03,32,7.00
2015,10,11,03,33,7.10
2015,10,11,03,34,7.10
2015,10,11,03,35,7.10
2015,10,11,03,36,7.00
2015,10,11,03,37,7.00
2015,10,11,03,38,6.90
2015,10,11,03,39,6.90
2015,10,11,03,40,6.90
2015,10,11,03,41,6.90
2015,10,11,03,42,6.80
2015,10,11,03,43,6.80
2015,10,11,03,44,6.80
2015,10,11,03,45,6.70
2015,10,11,03,46,6.70
2015,10,11,03,47,6.60
2015,10,11,03,48,6.60
2015,10,11,03,49,6.60
2015,10,11,03,50,6.60
2015,10,11,03,51,6.60
2015,10,11,03,52,6.60
2015,10,11,03,53,6.60
2015,10,11,03,54,6.60
2015,10,11,03,55,6.60
2015,10,11,03,56,6.60
2015,10,11,03,57,6.60
2015,10,11,03,58,6.60
2015,10,11,03,59,6.60
2015,10,11,04,00,6.50
2015,10,11,04,01,6.50
2015,10,11,04,02,6.50
2015,10,11,04,03,6.50
2015,10,11,04,04,6.40
2015,10,11,04,05,6.40
2015,10,11,04,06,6.40
2015,10,11,04,07,6.40
2015,10,11,04,08,6.40
2015,10,11,04,09,6.40
2015,10,11,04,10,6.40
2015,10,11,04,11,6.40
2015,10,11,04,12,6.40
2015,10,11,04,13,6.40
2015,10,11,04,14,6.30
2015,10,11,04,15,6.30
2015,10,11,04,16,6.30
2015,10,11,04,17,6.30
2015,10,11,04,18,6.40
2015,10,11,04,19,6.40
2015,10,11,04,20,6.40
2015,10,11,04,21,6.40
2015,10,11,04,22,6.40
2015,10,11,04,23,6.50
2015,10,11,04,24,6.60
2015,10,11,04,25,6.70
2015,10,11,04,26,6.80
2015,10,11,04,27,6.90
2015,10,11,04,28,7.00
2015,10,11,04,29,7.20
2015,10,11,04,30,7.20
2015,10,11,04,31,7.30
2015,10,11,04,32,7.40
2015,10,11,04,33,7.50
2015,10,11,04,34,7.50
2015,10,11,04,35,7.60
2015,10,11,04,36,7.70
2015,10,11,04,37,7.70
2015,10,11,04,38,7.70
2015,10,11,04,39,7.70
2015,10,11,04,40,7.60
2015,10,11,04,41,7.50
2015,10,11,04,42,7.40
2015,10,11,04,43,7.30
2015,10,11,04,44,7.30
2015,10,11,04,45,7.20
2015,10,11,04,46,7.20
2015,10,11,04,47,7.20
2015,10,11,04,48,7.10
2015,10,11,04,49,7.10
2015,10,11,04,50,7.00
2015,10,11,04,51,7.00
2015,10,11,04,52,6.90
2015,10,11,04,53,6.90
2015,10,11,04,54,6.80
2015,10,11,04,55,6.70
2015,10,11,04,56,6.70
2015,10,11,04,57,6.70
2015,10,11,04,58,6.70
2015,10,11,04,59,6.60
2015,10,11,05,00,6.60
2015,10,11,05,01,6.60
2015,10,11,05,02,6.50
2015,10,11,05,03,6.50
2015,10,11,05,04,6.50
2015,10,11,05,05,6.40
2015,10,11,05,06,6.40
2015,10,11,05,07,6.40
2015,10,11,05,08,6.40
2015,10,11,05,09,6.40
2015,10,11,05,10,6.30
2015,10,11,05,11,6.30
2015,10,11,05,12,6.30
2015,10,11,05,13,6.20
2015,10,11,05,14,6.20
2015,10,11,05,15,6.20
2015,10,11,05,16,6.20
2015,10,11,05,17,6.20
2015,10,11,05,18,6.20
2015,10,11,05,19,6.20
2015,10,11,05,20,6.10
2015,10,11,05,21,6.10
2015,10,11,05,22,6.10
2015,10,11,05,23,6.10
2015,10,11,05,24,6.10
2015,10,11,05,25,6.10
2015,10,11,05,26,6.10
2015,10,11,05,27,6.10
2015,10,11,05,28,6.10
2015,10,11,05,29,6.10
2015,10,11,05,30,6.10
2015,10,11,05,31,6.10
2015,10,11,05,32,6.10
2015,10,11,05,33,6.10
2015,10,11,05,34,6.10
2015,10,11,05,35,6.10
2015,10,11,05,36,6.00
2015,10,11,05,37,6.00
2015,10,11,05,38,6.00
2015,10,11,05,39,6.00
2015,10,11,05,40,5.90
2015,10,11,05,41,5.90
2015,10,11,05,42,5.90
2015,10,11,05,43,5.90
2015,10,11,05,44,5.90
2015,10,11,05,45,5.90
2015,10,11,05,46,5.80
2015,10,11,05,47,5.80
2015,10,11,05,48,5.80
2015,10,11,05,49,5.80
2015,10,11,05,50,5.80
2015,10,11,05,51,5.70
2015,10,11,05,52,5.70
2015,10,11,05,53,5.70
2015,10,11,05,54,5.70
2015,10,11,05,55,5.60
2015,10,11,05,56,5.60
2015,10,11,05,57,5.60
2015,10,11,05,58,5.50
2015,10,11,05,59,5.50
2015,10,11,06,00,5.50
2015,10,11,06,01,5.60
2015,10,11,06,02,5.60
2015,10,11,06,03,5.70
2015,10,11,06,04,5.70
2015,10,11,06,05,5.70
2015,10,11,06,06,5.80
2015,10,11,06,07,5.80
2015,10,11,06,08,5.80
2015,10,11,06,09,5.80
2015,10,11,06,10,5.80
2015,10,11,06,11,5.80
2015,10,11,06,12,5.70
2015,10,11,06,13,5.70
2015,10,11,06,14,5.70
2015,10,11,06,15,5.70
2015,10,11,06,16,5.70
2015,10,11,06,17,5.60
2015,10,11,06,18,5.60
2015,10,11,06,19,5.60
2015,10,11,06,20,5.60
2015,10,11,06,21,5.50
2015,10,11,06,22,5.50
2015,10,11,06,23,5.50
2015,10,11,06,24,5.60
2015,10,11,06,25,5.60
2015,10,11,06,26,5.50
2015,10,11,06,27,5.50
2015,10,11,06,28,5.50
2015,10,11,06,29,5.40
2015,10,11,06,30,5.40
2015,10,11,06,31,5.40
2015,10,11,06,32,5.40
2015,10,11,06,33,5.40
2015,10,11,06,34,5.50
2015,10,11,06,35,5.50
2015,10,11,06,36,5.50
2015,10,11,06,37,5.60
2015,10,11,06,38,5.50
2015,10,11,06,39,5.50
2015,10,11,06,40,5.50
2015,10,11,06,41,5.50
2015,10,11,06,42,5.50
2015,10,11,06,43,5.50
2015,10,11,06,44,5.40
2015,10,11,06,45,5.40
2015,10,11,06,46,5.40
2015,10,11,06,47,5.40
2015,10,11,06,48,5.40
2015,10,11,06,49,5.30
2015,10,11,06,50,5.40
2015,10,11,06,51,5.40
2015,10,11,06,52,5.30
2015,10,11,06,53,5.30
2015,10,11,06,54,5.30
2015,10,11,06,55,5.30
2015,10,11,06,56,5.30
2015,10,11,06,57,5.30
2015,10,11,06,58,5.30
2015,10,11,06,59,5.30
2015,10,11,07,00,5.30
2015,10,11,07,01,5.30
2015,10,11,07,02,5.40
2015,10,11,07,03,5.50
2015,10,11,07,04,5.50
2015,10,11,07,05,5.50
2015,10,11,07,06,5.50
2015,10,11,07,07,5.50
2015,10,11,07,08,5.40
2015,10,11,07,09,5.40
2015,10,11,07,10,5.40
2015,10,11,07,11,5.30
2015,10,11,07,12,5.30
2015,10,11,07,13,5.30
2015,10,11,07,14,5.30
2015,10,11,07,15,5.20
2015,10,11,07,16,5.20
2015,10,11,07,17,5.20
2015,10,11,07,18,5.20
2015,10,11,07,19,5.20
2015,10,11,07,20,5.20
2015,10,11,07,21,5.20
2015,10,11,07,22,5.20
2015,10,11,07,23,5.20
2015,10,11,07,24,5.20
2015,10,11,07,25,5.10
2015,10,11,07,26,5.10
2015,10,11,07,27,5.10
2015,10,11,07,28,5.10
2015,10,11,07,29,5.10
2015,10,11,07,30,5.10
2015,10,11,07,31,5.10
2015,10,11,07,32,5.20
2015,10,11,07,33,5.20
2015,10,11,07,34,5.20
2015,10,11,07,35,5.20
2015,10,11,07,36,5.20
2015,10,11,07,37,5.20
2015,10,11,07,38,5.10
2015,10,11,07,39,5.10
2015,10,11,07,40,5.10
2015,10,11,07,41,5.10
2015,10,11,07,42,5.00
2015,10,11,07,43,5.00
2015,10,11,07,44,5.00
2015,10,11,07,45,4.90
2015,10,11,07,46,4.90
2015,10,11,07,47,4.90
2015,10,11,07,48,4.90
2015,10,11,07,49,4.90
2015,10,11,07,50,4.90
2015,10,11,07,51,4.80
2015,10,11,07,52,4.80
2015,10,11,07,53,4.80
2015,10,11,07,54,4.80
2015,10,11,07,55,4.80
2015,10,11,07,56,4.80
2015,10,11,07,57,4.90
2015,10,11,07,58,4.90
2015,10,11,07,59,4.90
2015,10,11,08,00,5.00
2015,10,11,08,01,5.00
2015,10,11,08,02,5.10
2015,10,11,08,03,5.20
2015,10,11,08,04,5.20
2015,10,11,08,05,5.30
2015,10,11,08,06,5.40
2015,10,11,08,07,5.40
2015,10,11,08,08,5.40
2015,10,11,08,09,5.40
2015,10,11,08,10,5.40
2015,10,11,08,11,5.40
2015,10,11,08,12,5.40
2015,10,11,08,13,5.40
2015,10,11,08,14,5.50
2015,10,11,08,15,5.50
2015,10,11,08,16,5.60
2015,10,11,08,17,5.60
2015,10,11,08,18,5.60
2015,10,11,08,19,5.70
2015,10,11,08,20,5.80
2015,10,11,08,21,5.80
2015,10,11,08,22,5.90
2015,10,11,08,23,5.90
2015,10,11,08,24,6.00
2015,10,11,08,25,6.00
2015,10,11,08,26,6.10
2015,10,11,08,27,6.10
2015,10,11,08,28,6.20
2015,10,11,08,29,6.20
2015,10,11,08,30,6.20
2015,10,11,08,31,6.30
2015,10,11,08,32,6.30
2015,10,11,08,33,6.30
2015,10,11,08,34,6.40
2015,10,11,08,35,6.50
2015,10,11,08,36,6.50
2015,10,11,08,37,6.60
2015,10,11,08,38,6.70
2015,10,11,08,39,6.70
2015,10,11,08,40,6.80
2015,10,11,08,41,6.90
2015,10,11,08,42,6.90
2015,10,11,08,43,7.00
2015,10,11,08,44,7.10
2015,10,11,08,45,7.20
2015,10,11,08,46,7.20
2015,10,11,08,47,7.30
2015,10,11,08,48,7.30
2015,10,11,08,49,7.30
2015,10,11,08,50,7.40
2015,10,11,08,51,7.50
2015,10,11,08,52,7.50
2015,10,11,08,53,7.60
2015,10,11,08,54,7.60
2015,10,11,08,55,7.70
2015,10,11,08,56,7.80
2015,10,11,08,57,7.80
2015,10,11,08,58,7.90
2015,10,11,08,59,8.00
2015,10,11,09,00,8.10
2015,10,11,09,01,8.20
2015,10,11,09,02,8.30
2015,10,11,09,03,8.50
2015,10,11,09,04,8.60
2015,10,11,09,05,8.70
2015,10,11,09,06,8.80
2015,10,11,09,07,8.90
2015,10,11,09,08,9.00
2015,10,11,09,09,9.10
2015,10,11,09,10,9.10
2015,10,11,09,11,9.20
2015,10,11,09,12,9.30
2015,10,11,09,13,9.40
2015,10,11,09,14,9.50
2015,10,11,09,15,9.50
2015,10,11,09,16,9.60
2015,10,11,09,17,9.60
2015,10,11,09,18,9.70
2015,10,11,09,19,9.80
2015,10,11,09,20,9.90
2015,10,11,09,21,10.00
2015,10,11,09,22,10.10
2015,10,11,09,23,10.10
2015,10,11,09,24,10.20
2015,10,11,09,25,10.30
2015,10,11,09,26,10.40
2015,10,11,09,27,10.40
2015,10,11,09,28,10.40
2015,10,11,09,29,10.40
2015,10,11,09,30,10.50
2015,10,11,09,31,10.50
2015,10,11,09,32,10.50
2015,10,11,09,33,10.50
2015,10,11,09,34,10.60
2015,10,11,09,35,10.60
2015,10,11,09,36,10.60
2015,10,11,09,37,10.60
2015,10,11,09,38,10.60
2015,10,11,09,39,10.50
2015,10,11,09,40,10.50
2015,10,11,09,41,10.50
2015,10,11,09,42,10.50
2015,10,11,09,43,10.50
2015,10,11,09,44,10.50
2015,10,11,09,45,10.50
2015,10,11,09,46,10.60
2015,10,11,09,47,10.60
2015,10,11,09,48,10.60
2015,10,11,09,49,10.60
2015,10,11,09,50,10.60
2015,10,11,09,51,10.70
2015,10,11,09,52,10.70
2015,10,11,09,53,10.70
2015,10,11,09,54,10.70
2015,10,11,09,55,10.80
2015,10,11,09,56,10.80
2015,10,11,09,57,10.80
2015,10,11,09,58,10.80
2015,10,11,09,59,10.80
2015,10,11,10,00,10.80
2015,10,11,10,01,10.80
2015,10,11,10,02,10.80
2015,10,11,10,03,10.80
2015,10,11,10,04,10.80
2015,10,11,10,05,10.80
2015,10,11,10,06,10.80
2015,10,11,10,07,10.90
2015,10,11,10,08,10.90
2015,10,11,10,09,10.90
2015,10,11,10,10,11.00
2015,10,11,10,11,11.00
2015,10,11,10,12,11.10
2015,10,11,10,13,11.10
2015,10,11,10,14,11.20
2015,10,11,10,15,11.30
2015,10,11,10,16,11.30
2015,10,11,10,17,11.40
2015,10,11,10,18,11.40
2015,10,11,10,19,11.50
2015,10,11,10,20,11.50
2015,10,11,10,21,11.60
2015,10,11,10,22,11.60
2015,10,11,10,23,11.70
2015,10,11,10,24,11.70
2015,10,11,10,25,11.80
2015,10,11,10,26,11.80
2015,10,11,10,27,11.80
2015,10,11,10,28,11.90
2015,10,11,10,29,12.00
2015,10,11,10,30,12.00
2015,10,11,10,31,12.10
2015,10,11,10,32,12.20
2015,10,11,10,33,12.20
2015,10,11,10,34,12.20
2015,10,11,10,35,12.30
2015,10,11,10,36,12.30
2015,10,11,10,37,12.40
2015,10,11,10,38,12.50
2015,10,11,10,39,12.60
2015,10,11,10,40,12.70
2015,10,11,10,41,12.80
2015,10,11,10,42,12.80
2015,10,11,10,43,12.90
2015,10,11,10,44,13.00
2015,10,11,10,45,13.00
2015,10,11,10,46,13.10
2015,10,11,10,47,13.10
2015,10,11,10,48,13.10
2015,10,11,10,49,13.10
2015,10,11,10,50,13.20
2015,10,11,10,51,13.20
2015,10,11,10,52,13.20
2015,10,11,10,53,13.20
2015,10,11,10,54,13.30
2015,10,11,10,55,13.30
2015,10,11,10,56,13.30
2015,10,11,10,57,13.40
2015,10,11,10,58,13.40
2015,10,11,10,59,13.40
2015,10,11,11,00,13.40
2015,10,11,11,01,13.40
2015,10,11,11,02,13.30
2015,10,11,11,03,13.30
2015,10,11,11,04,13.20
2015,10,11,11,05,13.20
2015,10,11,11,06,13.10
2015,10,11,11,07,13.10
2015,10,11,11,08,13.10
2015,10,11,11,09,13.10
2015,10,11,11,10,13.10
2015,10,11,11,11,13.10
2015,10,11,11,12,13.10
2015,10,11,11,13,13.20
2015,10,11,11,14,13.10
2015,10,11,11,15,13.20
2015,10,11,11,16,13.20
2015,10,11,11,17,13.20
2015,10,11,11,18,13.20
2015,10,11,11,19,13.20
2015,10,11,11,20,13.20
2015,10,11,11,21,13.20
2015,10,11,11,22,13.20
2015,10,11,11,23,13.20
2015,10,11,11,24,13.20
2015,10,11,11,25,13.20
2015,10,11,11,26,13.20
2015,10,11,11,27,13.20
2015,10,11,11,28,13.30
2015,10,11,11,29,13.30
2015,10,11,11,30,13.40
2015,10,11,11,31,13.40
2015,10,11,11,32,13.40
2015,10,11,11,33,13.50
2015,10,11,11,34,13.60
2015,10,11,11,35,13.60
2015,10,11,11,36,13.60
2015,10,11,11,37,13.70
2015,10,11,11,38,13.70
2015,10,11,11,39,13.80
2015,10,11,11,40,13.80
2015,10,11,11,41,13.80
2015,10,11,11,42,13.90
2015,10,11,11,43,13.90
2015,10,11,11,44,13.90
2015,10,11,11,45,13.90
2015,10,11,11,46,13.90
2015,10,11,11,47,13.90
2015,10,11,11,48,13.90
2015,10,11,11,49,13.90
2015,10,11,11,50,13.90
2015,10,11,11,51,13.90
2015,10,11,11,52,13.90
2015,10,11,11,53,13.90
2015,10,11,11,54,13.90
2015,10,11,11,55,13.90
2015,10,11,11,56,13.90
2015,10,11,11,57,13.90
2015,10,11,11,58,13.90
2015,10,11,11,59,13.90
2015,10,11,12,00,13.90
2015,10,11,12,01,13.90
2015,10,11,12,02,14.00
2015,10,11,12,03,14.00
2015,10,11,12,04,14.00
2015,10,11,12,05,14.10
2015,10,11,12,06,14.10
2015,10,11,12,07,14.00
2015,10,11,12,08,14.00
2015,10,11,12,09,13.90
2015,10,11,12,10,13.90
2015,10,11,12,11,13.90
2015,10,11,12,12,13.80
2015,10,11,12,13,13.70
2015,10,11,12,14,13.70
2015,10,11,12,15,13.60
2015,10,11,12,16,13.60
2015,10,11,12,17,13.60
2015,10,11,12,18,13.50
2015,10,11,12,19,13.40
2015,10,11,12,20,13.40
2015,10,11,12,21,13.30
2015,10,11,12,22,13.30
2015,10,11,12,23,13.30
2015,10,11,12,24,13.30
2015,10,11,12,25,13.30
2015,10,11,12,26,13.30
2015,10,11,12,27,13.30
2015,10,11,12,28,13.20
2015,10,11,12,29,13.20
2015,10,11,12,30,13.20
2015,10,11,12,31,13.20
2015,10,11,12,32,13.20
2015,10,11,12,33,13.20
2015,10,11,12,34,13.20
2015,10,11,12,35,13.20
2015,10,11,12,36,13.20
2015,10,11,12,37,13.20
2015,10,11,12,38,13.20
2015,10,11,12,39,13.10
2015,10,11,12,40,13.10
2015,10,11,12,41,13.10
2015,10,11,12,42,13.10
2015,10,11,12,43,13.20
2015,10,11,12,44,13.20
2015,10,11,12,45,13.10
2015,10,11,12,46,13.10
2015,10,11,12,47,13.10
2015,10,11,12,48,13.00
2015,10,11,12,49,13.00
2015,10,11,12,50,13.00
2015,10,11,12,51,13.00
2015,10,11,12,52,12.90
2015,10,11,12,53,12.90
2015,10,11,12,54,12.90
2015,10,11,12,55,12.90
2015,10,11,12,56,12.90
2015,10,11,12,57,12.90
2015,10,11,12,58,13.00
2015,10,11,12,59,13.00
2015,10,11,13,00,13.00
2015,10,11,13,01,13.00
2015,10,11,13,02,13.00
2015,10,11,13,03,13.10
2015,10,11,13,04,13.10
2015,10,11,13,05,13.10
2015,10,11,13,06,13.10
2015,10,11,13,07,13.00
2015,10,11,13,08,13.10
2015,10,11,13,09,13.00
2015,10,11,13,10,13.10
2015,10,11,13,11,13.10
2015,10,11,13,12,13.10
2015,10,11,13,13,13.10
2015,10,11,13,14,13.20
2015,10,11,13,15,13.20
2015,10,11,13,16,13.20
2015,10,11,13,17,13.10
2015,10,11,13,18,13.10
2015,10,11,13,19,13.10
2015,10,11,13,20,13.10
2015,10,11,13,21,13.10
2015,10,11,13,22,13.10
2015,10,11,13,23,13.10
2015,10,11,13,24,13.10
2015,10,11,13,25,13.20
2015,10,11,13,26,13.20
2015,10,11,13,27,13.20
2015,10,11,13,28,13.20
2015,10,11,13,29,13.20
2015,10,11,13,30,13.20
2015,10,11,13,31,13.20
2015,10,11,13,32,13.30
2015,10,11,13,33,13.30
2015,10,11,13,34,13.30
2015,10,11,13,35,13.40
2015,10,11,13,36,13.40
2015,10,11,13,37,13.40
2015,10,11,13,38,13.40
2015,10,11,13,39,13.40
2015,10,11,13,40,13.50
2015,10,11,13,41,13.50
2015,10,11,13,42,13.40
2015,10,11,13,43,13.40
2015,10,11,13,44,13.40
2015,10,11,13,45,13.40
2015,10,11,13,46,13.40
2015,10,11,13,47,13.40
2015,10,11,13,48,13.50
2015,10,11,13,49,13.60
2015,10,11,13,50,13.60
2015,10,11,13,51,13.60
2015,10,11,13,52,13.60
2015,10,11,13,53,13.60
2015,10,11,13,54,13.60
2015,10,11,13,55,13.60
2015,10,11,13,56,13.60
2015,10,11,13,57,13.60
2015,10,11,13,58,13.60
2015,10,11,13,59,13.60
2015,10,11,14,00,13.60
2015,10,11,14,01,13.60
2015,10,11,14,02,13.60
2015,10,11,14,03,13.60
2015,10,11,14,04,13.60
2015,10,11,14,05,13.60
2015,10,11,14,06,13.60
2015,10,11,14,07,13.60
2015,10,11,14,08,13.60
2015,10,11,14,09,13.60
2015,10,11,14,10,13.60
2015,10,11,14,11,13.60
2015,10,11,14,12,13.60
2015,10,11,14,13,13.70
2015,10,11,14,14,13.70
2015,10,11,14,15,13.70
2015,10,11,14,16,13.70
2015,10,11,14,17,13.70
2015,10,11,14,18,13.70
2015,10,11,14,19,13.80
2015,10,11,14,20,13.80
2015,10,11,14,21,13.80
2015,10,11,14,22,13.80
2015,10,11,14,23,13.80
2015,10,11,14,24,13.80
2015,10,11,14,25,13.80
2015,10,11,14,26,13.80
2015,10,11,14,27,13.80
2015,10,11,14,28,13.80
2015,10,11,14,29,13.80
2015,10,11,14,30,13.80
2015,10,11,14,31,13.80
2015,10,11,14,32,13.80
2015,10,11,14,33,13.80
2015,10,11,14,34,13.80
2015,10,11,14,35,13.80
2015,10,11,14,36,13.80
2015,10,11,14,37,13.80
2015,10,11,14,38,13.90
2015,10,11,14,39,13.90
2015,10,11,14,40,13.90
2015,10,11,14,41,13.80
2015,10,11,14,42,13.80
2015,10,11,14,43,13.80
2015,10,11,14,44,13.70
2015,10,11,14,45,13.70
2015,10,11,14,46,13.70
2015,10,11,14,47,13.60
2015,10,11,14,48,13.60
2015,10,11,14,49,13.60
2015,10,11,14,50,13.60
2015,10,11,14,51,13.50
2015,10,11,14,52,13.50
2015,10,11,14,53,13.50
2015,10,11,14,54,13.40
2015,10,11,14,55,13.40
2015,10,11,14,56,13.40
2015,10,11,14,57,13.40
2015,10,11,14,58,13.40
2015,10,11,14,59,13.40
2015,10,11,15,00,13.40
2015,10,11,15,01,13.40
2015,10,11,15,02,13.40
2015,10,11,15,03,13.40
2015,10,11,15,04,13.40
2015,10,11,15,05,13.30
2015,10,11,15,06,13.30
2015,10,11,15,07,13.30
2015,10,11,15,08,13.30
2015,10,11,15,09,13.30
2015,10,11,15,10,13.30
2015,10,11,15,11,13.30
2015,10,11,15,12,13.30
2015,10,11,15,13,13.30
2015,10,11,15,14,13.30
2015,10,11,15,15,13.30
2015,10,11,15,16,13.30
2015,10,11,15,17,13.30
2015,10,11,15,18,13.20
2015,10,11,15,19,13.20
2015,10,11,15,20,13.20
2015,10,11,15,21,13.20
2015,10,11,15,22,13.20
2015,10,11,15,23,13.20
2015,10,11,15,24,13.20
2015,10,11,15,25,13.20
2015,10,11,15,26,13.20
2015,10,11,15,27,13.20
2015,10,11,15,28,13.20
2015,10,11,15,29,13.20
2015,10,11,15,30,13.20
2015,10,11,15,31,13.20
2015,10,11,15,32,13.20
2015,10,11,15,33,13.20
2015,10,11,15,34,13.20
2015,10,11,15,35,13.20
2015,10,11,15,36,13.20
2015,10,11,15,37,13.20
2015,10,11,15,38,13.20
2015,10,11,15,39,13.20
2015,10,11,15,40,13.20
2015,10,11,15,41,13.20
2015,10,11,15,42,13.20
2015,10,11,15,43,13.20
2015,10,11,15,44,13.10
2015,10,11,15,45,13.10
2015,10,11,15,46,13.10
2015,10,11,15,47,13.10
2015,10,11,15,48,13.10
2015,10,11,15,49,13.10
2015,10,11,15,50,13.10
2015,10,11,15,51,13.10
2015,10,11,15,52,13.10
2015,10,11,15,53,13.10
2015,10,11,15,54,13.10
2015,10,11,15,55,13.10
2015,10,11,15,56,13.10
2015,10,11,15,57,13.10
2015,10,11,15,58,13.10
2015,10,11,15,59,13.10
2015,10,11,16,00,13.10
2015,10,11,16,01,13.10
2015,10,11,16,02,13.10
2015,10,11,16,03,13.10
2015,10,11,16,04,13.10
2015,10,11,16,05,13.20
2015,10,11,16,06,13.20
2015,10,11,16,07,13.20
2015,10,11,16,08,13.20
2015,10,11,16,09,13.20
2015,10,11,16,10,13.20
2015,10,11,16,11,13.20
2015,10,11,16,12,13.20
2015,10,11,16,13,13.20
2015,10,11,16,14,13.20
2015,10,11,16,15,13.20
2015,10,11,16,16,13.20
2015,10,11,16,17,13.20
2015,10,11,16,18,13.20
2015,10,11,16,19,13.20
2015,10,11,16,20,13.20
2015,10,11,16,21,13.20
2015,10,11,16,22,13.20
2015,10,11,16,23,13.10
2015,10,11,16,24,13.10
2015,10,11,16,25,13.10
2015,10,11,16,26,13.10
2015,10,11,16,27,13.10
2015,10,11,16,28,13.10
2015,10,11,16,29,13.10
2015,10,11,16,30,13.10
2015,10,11,16,31,13.10
2015,10,11,16,32,13.10
2015,10,11,16,33,13.00
2015,10,11,16,34,13.00
2015,10,11,16,35,13.00
2015,10,11,16,36,13.00
2015,10,11,16,37,13.00
2015,10,11,16,38,13.00
2015,10,11,16,39,13.00
2015,10,11,16,40,13.00
2015,10,11,16,41,12.90
2015,10,11,16,42,12.90
2015,10,11,16,43,12.90
2015,10,11,16,44,12.90
2015,10,11,16,45,12.90
2015,10,11,16,46,12.90
2015,10,11,16,47,12.90
2015,10,11,16,48,12.90
2015,10,11,16,49,12.90
2015,10,11,16,50,12.90
2015,10,11,16,51,12.90
2015,10,11,16,52,12.90
2015,10,11,16,53,12.90
2015,10,11,16,54,12.90
2015,10,11,16,55,12.90
2015,10,11,16,56,12.90
2015,10,11,16,57,12.90
2015,10,11,16,58,12.90
2015,10,11,16,59,12.90
2015,10,11,17,00,12.90
2015,10,11,17,01,12.90
2015,10,11,17,02,12.90
2015,10,11,17,03,12.90
2015,10,11,17,04,12.90
2015,10,11,17,05,12.90
2015,10,11,17,06,12.90
2015,10,11,17,07,12.90
2015,10,11,17,08,12.90
2015,10,11,17,09,12.80
2015,10,11,17,10,12.80
2015,10,11,17,11,12.80
2015,10,11,17,12,12.80
2015,10,11,17,13,12.80
2015,10,11,17,14,12.70
2015,10,11,17,15,12.70
2015,10,11,17,16,12.70
2015,10,11,17,17,12.70
2015,10,11,17,18,12.70
2015,10,11,17,19,12.70
2015,10,11,17,20,12.70
2015,10,11,17,21,12.70
2015,10,11,17,22,12.70
2015,10,11,17,23,12.60
2015,10,11,17,24,12.60
2015,10,11,17,25,12.60
2015,10,11,17,26,12.60
2015,10,11,17,27,12.60
2015,10,11,17,28,12.60
2015,10,11,17,29,12.60
2015,10,11,17,30,12.60
2015,10,11,17,31,12.60
2015,10,11,17,32,12.60
2015,10,11,17,33,12.60
2015,10,11,17,34,12.60
2015,10,11,17,35,12.60
2015,10,11,17,36,12.60
2015,10,11,17,37,12.60
2015,10,11,17,38,12.60
2015,10,11,17,39,12.60